Weather History for Newberry, MI

Change the Weather History Date:

Tuesday, December 4, 2012

  Actual Average Record
Temperature  
Mean Temperature 38 °F -  
Max Temperature 53 °F 31 °F 53 °F (2012)
Min Temperature 24 °F 17 °F -6 °F (1926)
Degree Days  
Heating Degree Days 26    
Moisture  
Dew Point 32 °F    
Average Humidity 84    
Maximum Humidity 100    
Minimum Humidity 64    
Precipitation  
Precipitation 0.00 in - - ()
Sea Level Pressure  
Sea Level Pressure 29.89 in    
Wind  
Wind Speed 11 mph (WSW)    
Max Wind Speed 21 mph    
Max Gust Speed 26 mph    
Visibility 9 miles    
Events Snow    
Averages and records for this station are not official NWS values.
T = Trace of Precipitation, MM = Missing Value Source: NWS Daily Summary

Daily Weather History Graph

Daily Weather History Graph

Search for Another Location

Airport:

Trip Planner

Search our weather history database for the weather conditions in past years. The results will help you decide how hot, cold, wet, or windy it might be!

Date:

Astronomy

Dec. 04, 2012 Rise Set
Actual Time 8:08 AM EST 4:56 PM EST
Civil Twilight 7:34 AM EST 5:30 PM EST
Nautical Twilight 6:56 AM EST 6:08 PM EST
Astronomical Twilight 6:19 AM EST 6:44 PM EST
Moon 10:56 PM EST (12/4) 11:50 AM EST (12/4)
Length of Visible Light 9h 56m
Length of Day
8h 47m
Waning Gibbous, 69% of the Moon is Illuminated
Dec 4
Waning Gibbous
Dec 6
Last Quarter
Dec 13
New
Dec 20
First Quarter
Dec 28
Full

Hourly Weather History & Observations

Time (EST) Temp. Windchill Dew Point Humidity Pressure Visibility Wind Dir Wind Speed Gust Speed Precip Events Conditions
12:15 AM 53.6 °F - 51.8 °F 94% 29.63 in 5.0 mi WSW 10.4 mph - N/A   Overcast
12:35 AM 53.6 °F - 51.8 °F 94% 29.64 in 5.0 mi WSW 9.2 mph - N/A   Overcast
12:54 AM 51.8 °F - 51.8 °F 100% 29.65 in 5.0 mi West 12.7 mph - N/A   Mostly Cloudy
1:15 AM 51.8 °F - 48.2 °F 88% 29.66 in 10.0 mi West 10.4 mph - N/A   Scattered Clouds
1:35 AM 48.2 °F - 46.4 °F 93% 29.68 in 7.0 mi West 8.1 mph - N/A   Scattered Clouds
1:54 AM 48.2 °F - 46.4 °F 93% 29.69 in 10.0 mi West 8.1 mph - N/A   Clear
2:15 AM 46.4 °F 41.9 °F 44.6 °F 93% 29.70 in 10.0 mi West 9.2 mph - N/A   Clear
2:34 AM 46.4 °F 42.9 °F 44.6 °F 93% 29.72 in 10.0 mi WSW 6.9 mph - N/A   Scattered Clouds
2:55 AM 46.4 °F 41.1 °F 42.8 °F 87% 29.73 in 10.0 mi WSW 11.5 mph - N/A   Scattered Clouds
3:15 AM 44.6 °F 39.7 °F 42.8 °F 93% 29.73 in 10.0 mi SW 9.2 mph - N/A   Clear
3:55 AM 42.8 °F 37.0 °F 39.2 °F 87% 29.75 in 10.0 mi SW 10.4 mph - N/A   Clear
4:15 AM 42.8 °F 37.0 °F 39.2 °F 87% 29.75 in 10.0 mi SW 10.4 mph - N/A   Clear
4:34 AM 41.0 °F 35.2 °F 39.2 °F 93% 29.75 in 10.0 mi SSW 9.2 mph - N/A   Clear
4:55 AM 42.8 °F 36.2 °F 39.2 °F 87% 29.75 in 10.0 mi SW 12.7 mph - N/A   Clear
5:15 AM 41.0 °F 35.2 °F 37.4 °F 87% 29.76 in 10.0 mi SW 9.2 mph - N/A   Clear
5:35 AM 39.2 °F 31.2 °F 37.4 °F 93% 29.76 in 10.0 mi SW 13.8 mph - N/A   Clear
5:55 AM 39.2 °F 31.6 °F 37.4 °F 93% 29.76 in 10.0 mi SW 12.7 mph - N/A   Clear
6:14 AM 39.2 °F 33.0 °F 37.4 °F 93% 29.76 in 10.0 mi SW 9.2 mph - N/A   Clear
6:35 AM 39.2 °F 33.0 °F 35.6 °F 87% 29.77 in 10.0 mi SW 9.2 mph - N/A   Clear
6:55 AM 39.2 °F 33.0 °F 35.6 °F 87% 29.78 in 10.0 mi SW 9.2 mph - N/A   Clear
7:14 AM 37.4 °F 30.3 °F 35.6 °F 93% 29.79 in 10.0 mi SW 10.4 mph - N/A   Clear
7:35 AM 37.4 °F 30.3 °F 35.6 °F 93% 29.80 in 10.0 mi SW 10.4 mph - N/A   Clear
7:55 AM 37.4 °F 30.3 °F 35.6 °F 93% 29.80 in 10.0 mi SSW 10.4 mph - N/A   Clear
8:14 AM 37.4 °F 29.8 °F 35.6 °F 93% 29.81 in 10.0 mi SSW 11.5 mph - N/A   Clear
8:35 AM 37.4 °F 30.3 °F 33.8 °F 87% 29.83 in 10.0 mi SW 10.4 mph - N/A   Clear
8:55 AM 37.4 °F 30.3 °F 35.6 °F 93% 29.83 in 10.0 mi SSW 10.4 mph - N/A   Clear
9:14 AM 37.4 °F 30.8 °F 35.6 °F 93% 29.84 in 10.0 mi SW 9.2 mph - N/A   Clear
9:35 AM 37.4 °F 32.1 °F 35.6 °F 93% 29.84 in 10.0 mi SW 6.9 mph - N/A   Clear
9:55 AM 37.4 °F 30.8 °F 35.6 °F 93% 29.85 in 10.0 mi SW 9.2 mph - N/A   Clear
10:15 AM 39.2 °F 33.0 °F 35.6 °F 87% 29.85 in 10.0 mi SW 9.2 mph - N/A   Clear
10:35 AM 39.2 °F 31.6 °F 35.6 °F 87% 29.85 in 10.0 mi WSW 12.7 mph 17.3 mph N/A   Clear
10:55 AM 39.2 °F 30.8 °F 33.8 °F 81% 29.85 in 10.0 mi WSW 15.0 mph 19.6 mph N/A   Clear
11:15 AM 41.0 °F 34.3 °F 33.8 °F 76% 29.85 in 10.0 mi West 11.5 mph 17.3 mph N/A   Clear
11:35 AM 41.0 °F 33.5 °F 33.8 °F 76% 29.84 in 10.0 mi West 13.8 mph 21.9 mph N/A   Clear
11:54 AM 41.0 °F 32.5 °F 32.0 °F 70% 29.84 in 10.0 mi West 17.3 mph - N/A   Clear
12:15 PM 41.0 °F 33.9 °F 32.0 °F 70% 29.84 in 10.0 mi West 12.7 mph - N/A   Clear
12:35 PM 42.8 °F 35.4 °F 32.0 °F 66% 29.84 in 10.0 mi West 15.0 mph 18.4 mph N/A   Mostly Cloudy
1:15 PM 37.4 °F 29.8 °F 30.2 °F 75% 29.85 in 10.0 mi WNW 11.5 mph - N/A   Overcast
1:35 PM 37.4 °F 28.2 °F 30.2 °F 75% 29.86 in 10.0 mi WNW 16.1 mph 21.9 mph N/A   Overcast
1:54 PM 35.6 °F 27.1 °F 28.4 °F 75% 29.88 in 10.0 mi WNW 12.7 mph 21.9 mph N/A   Overcast
2:15 PM 35.6 °F 28.0 °F 28.4 °F 75% 29.88 in 10.0 mi WNW 10.4 mph 20.7 mph N/A   Overcast
2:35 PM 33.8 °F 24.8 °F 28.4 °F 81% 29.89 in 10.0 mi WNW 12.7 mph 21.9 mph N/A   Overcast
2:54 PM 33.8 °F 25.3 °F 26.6 °F 75% 29.91 in 10.0 mi WNW 11.5 mph 17.3 mph N/A   Overcast
3:15 PM 33.8 °F 25.8 °F 26.6 °F 75% 29.91 in 10.0 mi WNW 10.4 mph 19.6 mph N/A   Overcast
3:34 PM 33.8 °F 23.5 °F 24.8 °F 70% 29.92 in 10.0 mi West 16.1 mph 20.7 mph N/A   Overcast
3:55 PM 32.0 °F 21.2 °F 24.8 °F 75% 29.94 in 10.0 mi West 16.1 mph 25.3 mph N/A   Overcast
4:15 PM 30.2 °F 19.3 °F 23.0 °F 75% 29.96 in 10.0 mi NW 15.0 mph 23.0 mph N/A   Overcast
4:34 PM 30.2 °F 19.8 °F 21.2 °F 69% 29.98 in 10.0 mi WNW 13.8 mph 24.2 mph N/A   Overcast
4:55 PM 30.2 °F 20.2 °F 21.2 °F 69% 29.99 in 10.0 mi WNW 12.7 mph 24.2 mph N/A   Overcast
5:15 PM 28.4 °F 15.4 °F 19.4 °F 69% 30.00 in 10.0 mi WNW 19.6 mph 26.5 mph N/A   Overcast
5:34 PM 28.4 °F 15.1 °F 17.6 °F 64% 30.02 in 10.0 mi West 20.7 mph 26.5 mph N/A   Mostly Cloudy
5:55 PM 28.4 °F 16.2 °F 19.4 °F 69% 30.03 in 10.0 mi West 17.3 mph 25.3 mph N/A Snow Light Snow
6:15 PM 26.6 °F 14.7 °F 21.2 °F 80% 30.04 in 4.0 mi WNW 15.0 mph 26.5 mph N/A Snow Light Snow
6:34 PM 26.6 °F 15.7 °F 23.0 °F 86% 30.04 in 7.0 mi West 12.7 mph 18.4 mph N/A Snow Light Snow
6:55 PM 26.6 °F 14.3 °F 23.0 °F 86% 30.05 in 7.0 mi West 16.1 mph 25.3 mph N/A Snow Light Snow
7:15 PM 26.6 °F 15.2 °F 23.0 °F 86% 30.05 in 5.0 mi West 13.8 mph 19.6 mph N/A Snow Light Snow
7:34 PM 26.6 °F 15.2 °F 23.0 °F 86% 30.05 in 7.0 mi West 13.8 mph 17.3 mph N/A Snow Light Snow
7:55 PM 26.6 °F 14.7 °F 21.2 °F 80% 30.06 in 5.0 mi WNW 15.0 mph 24.2 mph N/A Snow Light Snow
8:15 PM 26.6 °F 15.7 °F 21.2 °F 80% 30.07 in 2.0 mi West 12.7 mph 23.0 mph N/A Snow Light Snow
8:34 PM 24.8 °F 12.9 °F 21.2 °F 86% 30.07 in 4.0 mi West 13.8 mph 17.3 mph N/A Snow Light Snow
8:55 PM 24.8 °F 14.0 °F 21.2 °F 86% 30.08 in 10.0 mi West 11.5 mph - N/A   Overcast
9:14 PM 24.8 °F 14.6 °F 21.2 °F 86% 30.08 in 7.0 mi West 10.4 mph - N/A   Overcast
9:34 PM 24.8 °F 16.1 °F 21.2 °F 86% 30.08 in 10.0 mi West 8.1 mph 16.1 mph N/A Snow Light Snow
9:55 PM 26.6 °F 16.8 °F 21.2 °F 80% 30.09 in 2.0 mi West 10.4 mph 18.4 mph N/A Snow Light Snow
10:14 PM 24.8 °F 14.6 °F 21.2 °F 86% 30.09 in 10.0 mi West 10.4 mph - N/A Snow Light Snow
10:35 PM 24.8 °F 15.3 °F 23.0 °F 93% 30.10 in 5.0 mi West 9.2 mph - N/A Snow Light Snow
10:55 PM 26.6 °F 16.8 °F 23.0 °F 86% 30.10 in 2.5 mi West 10.4 mph - N/A Snow Light Snow
11:14 PM 26.6 °F 16.2 °F 23.0 °F 86% 30.10 in 7.0 mi West 11.5 mph - N/A Snow Light Snow
11:35 PM 26.6 °F 16.2 °F 23.0 °F 86% 30.11 in 3.0 mi West 11.5 mph 18.4 mph N/A Snow Light Snow
11:55 PM 26.6 °F 16.8 °F 24.8 °F 93% 30.12 in 2.0 mi West 10.4 mph - N/A Snow Light Snow